Flag for Poland Weather past 2 weeks in Słupsk, Poland

Now
72 °F

Passing clouds.


Feels Like: 73 °F
Forecast: 67 / 84 °F
Wind: 5 mph from East

Location: Leba

Current Time: Jul 29, 2014 at 10:07:02 PM

Latest Report: Jul 29, 2014 at 9:00 PM


Visibility: 11 mi

Pressure: 29.75 "Hg

Humidity: 78%

Dew point: 65 °F

Location of SłupskLocation

Historic Weather in Słupsk — Graph

°F

Słupsk temperature yesterday

Maximum temperature yesterday: 78 °F (at 11:00 AM)
Minimum temperature yesterday: 63 °F (at 5:00 AM)
Average temperature yesterday: 70 °F

Past Weeks' High & Low Weather Summary

 TemperatureHumidityPressure
High86 °F (Jul 27, 3:00 PM)98% (Jul 17, 7:00 AM)30.23 "Hg (Jul 17, 7:00 AM)
Low50 °F (Jul 18, 3:00 AM)41% (Jul 26, 2:00 PM)29.74 "Hg (Jul 29, 6:00 PM)
Average68 °F80%30.05 "Hg
* Reported Jul 14 8:00 PM — Jul 29 8:00 PM, Słupsk, Weather by CustomWeather, © 2014

Note: Actual official high and low records may vary slightly from our data, if they occured in-between our weather recording intervals... More about our weather records

Advertising

Słupsk weather history for previous 24 hours

 ConditionsComfort  
Time TempWeatherWind HumidityBarometerVisibility
8:00 PM
Jul 29
72 °FPartly sunny.5 mph79%29.75 "Hg12 mi
7:00 PM72 °FScattered clouds.6 mph81%29.75 "Hg9 mi
6:00 PM71 °FScattered clouds.6 mph84%29.74 "Hg10 mi
5:00 PM73 °FScattered clouds.6 mph75%29.76 "Hg9 mi
4:00 PM76 °FScattered clouds.7 mph74%29.78 "Hg11 mi
3:00 PM79 °FScattered clouds.6 mph65%29.79 "Hg12 mi
2:00 PM77 °FScattered clouds.5 mph78%29.81 "Hg12 mi
1:00 PM75 °FScattered clouds.5 mph81%29.82 "Hg12 mi
12:00 PM75 °FScattered clouds.5 mph80%29.83 "Hg12 mi
11:00 AM72 °FScattered clouds.5 mph89%29.84 "Hg12 mi
10:00 AM75 °FPassing clouds.2 mph84%29.84 "Hg12 mi
9:00 AM72 °FScattered clouds.2 mph91%29.85 "Hg11 mi
8:00 AM70 °FFog.1 mph97%29.85 "Hg2 mi
7:00 AM67 °FFog.1 mph97%29.85 "Hg0 mi
6:00 AM65 °FFog.3 mph97%29.85 "Hg1 mi
5:00 AM67 °FFog.2 mph97%29.85 "Hg0 mi
4:00 AM66 °FFog.3 mph97%29.85 "Hg0 mi
3:00 AM65 °FFog.3 mph96%29.87 "Hg1 mi
2:00 AM64 °FFog.2 mph97%29.88 "Hg2 mi
1:00 AM63 °FFog.1 mph95%29.88 "Hg2 mi
12:00 AM64 °FFog.1 mph93%29.88 "Hg4 mi
11:00 PM
Jul 28
65 °FFog.2 mph91%29.89 "Hg4 mi
10:00 PM67 °FFog.2 mph90%29.90 "Hg4 mi
Weather by CustomWeather, © 2014

See weather overviewHow to use our weather pages